Regional Weather Roundup
Issued by NWS

Home | Current Version | Previous Version | Text Only | Print | Product List | Glossary On
Versions: 1 2 3 4 5 6 7 8 9 10 11 12 13 14 15 16 17 18 19 20 21 22 23 24 25 26 27
000
ASUS45 KSLC 300610
RWRUT

UTAH REGIONAL WEATHER ROUNDUP
NATIONAL WEATHER SERVICE SALT LAKE CITY UT
1200 AM MDT MON MAY 30 2016

UTZ001>011-023>025-300700-

NORTHERN UTAH

CITY           SKY/WX    TMP DP  RH WIND       PRES   REMARKS
BRIGHAM CITY     N/A     57  51  79 SE17G23   30.10F
HILL AFB       CLOUDY    55  50  84 N15G24    30.12R
LOGAN          LGT RAIN  55  51  86 SE23      30.07F
OGDEN          LGT RAIN  55  51  86 NE21G26   30.11R
PROVO AIRPORT  MOCLDY    63  41  45 E6        30.05F
SALT LAKE CITY CLOUDY    64  47  53 N24G33    30.09R
VERNAL         CLOUDY    52  40  63 W6        30.10S
WENDOVER       CLOUDY    63  41  45 E6        30.06F
HEBER CITY     MOCLDY    46  43  87 S3        30.12F
WEST JORDAN    MOCLDY    64  43  45 NW3       30.09R

$$

UTZ012>022-026-027-300700-

SOUTHERN/CENTRAL UTAH

CITY           SKY/WX    TMP DP  RH WIND       PRES   REMARKS
BLANDING       CLEAR     63  28  26 N10       30.13S
BRYCE CANYON   PTCLDY    46  32  58 N9        30.22F
CEDAR CITY     PTCLDY    55  33  43 VRB3      30.08S
DELTA          MOCLDY    54  41  62 SW7       30.06S
HANKSVILLE     PTCLDY    57  28  33 E5        30.05S
MILFORD        MOCLDY    60  34  37 W8        30.05F
MOAB/CYNLANDS  CLEAR     67  34  29 N12       30.01R
PRICE          CLOUDY    61  34  36 N10       30.09F
ST GEORGE      MOCLDY    81  30  16 W10       29.94R
KANAB          PTCLDY    66  34  30 N5        30.08R

$$

REGIONAL REPORTS     COLORADO/ARIZONA

CITY           SKY/WX    TMP DP  RH WIND       PRES   REMARKS
CRAIG, CO      CLOUDY    44  39  82 CALM      30.16F
GRAND JUNCTION CLEAR     61  37  41 W6        30.06S
RIFLE          CLEAR     49  38  65 SE5       30.13S
MONTROSE       CLEAR     52  35  52 S7        30.13R
CORTEZ         CLEAR     48  30  49 N3        30.09S
PAGE, AZ       MOCLDY    75  22  13 SW5       29.96R
GRAND CANYON   PTCLDY    46  17  31 NE3       30.18S
KINGMAN        CLEAR     65  21  18 S6        29.99S
FLAGSTAFF      CLEAR     41  17  38 CALM      30.20F

$$

REGIONAL REPORTS    NEVADA/IDAHO/WYOMING

CITY           SKY/WX    TMP DP  RH WIND       PRES   REMARKS
LAS VEGAS, NV  CLEAR     81  18   9 S7        29.85R
ELY            CLOUDY    54  38  54 N6        30.18S
ELKO           CLEAR     60  43  53 E3        30.06R
POCATELLO, ID  CLOUDY    59  40  49 CALM      30.03R
BURLEY         PTCLDY    59  44  57 S13       30.00S
EVANSTON, WY   CLOUDY    47  41  80 N12       30.22F
ROCK SPRINGS   CLOUDY    50  39  66 N7        30.15F
KEMMERER       RAIN      45  41  87 W6        30.25S

$$




USA.gov is the U.S. government's official web portal to all federal, state and local government web resources and services.